CZ-6A DEB, 54281

Orbit data source: Space-Track

CZ-6A DEB, 54281 is space debris in SSO originally from a launch on Fri, 11 Nov 2022 UTC launched from the Taiyaun Space Center, China (TSC). Debris objects in space refer to the collection of defunct objects orbiting the Earth. Examples of debris include non-operational satellites, rocket bodies, and fragments generated from explosions, collisions, or faulty payload assembly.

Loading next visibility...
Identifier
54281, 2022-151Y
Orbit
SSO
Country
Flag of CNCN / PRC
Related business
Manufacturer
SAST
Mission
Spacecraft
Bus & Motor
Unknown
Mass
Unknown
Launch date (UTC)
2022-11-11 (4 years ago)
Launch vehicle
Unknown
Launch site
Taiyaun Space Center, China (TSC)
Object type
Payload
Rocket body
Debris
Shape & HBR
Unknown shape, 0.2 m
Radar Cross Section
Medium (>0.1 m² and <1 m²)

Expand to show TLE details & history
Last TLE update: 1 day ago

TLE from 1 day ago
0 CZ-6A DEB
1 54281U 22151Y   26235.06770202  .00000176  00000-0  72432-4 0  9999
2 54281  98.5869 258.5771 0102139 177.9900 182.1717 14.35604617197327
Epoch: 2026-08-23T01:37Z
TLE epoch observation values (Epoch: 2026-08-23T01:37:29.454Z)
Latitude
0.00003°
Longitude
-97.1647°
Altitude
849.003 km
Speed
7.39 km/s
True Right ascension
17h 14m 18s
True Declination
0° 00' 00"
Sunlit
Object was in daylight at epoch
Visualization orbit readout
Latitude
Unknown
Longitude
Unknown
Altitude
Unknown
Speed
Unknown
Apparent Right ascension
Unknown
Apparent Declination
Unknown
Sunlit
N/A
Visualization observer readout
Local Sidereal Time
02:52:18
Azimuth
Unknown
Elevation
Unknown
Doppler factor
Unknown
Orbital elements
Apogee altitude
843.202 km
Perigee altitude
697.177 km
Semi-major axis
7,148.326 km
Eccentricity
0.01021
Inclination
98.5869°
RAAN
258.5771°
Arg. of periapsis
177.99°
True anomaly
182.12791°
Mean anomaly
182.1717°
Eccentric anomaly
182.14975°
Mean motion
3.59118 °/min
Orbital period
100.25 mins
BSTAR
0.000072432
Loading maneuver chart data...
Computing Atmospheric mass density...

Documentation

Showing up to 5 results
|